Weather History for South Lake Tahoe, CA

Change the Weather History Date:

Saturday, June 7, 2014

  Actual Average Record
Temperature  
Mean Temperature 63 °F 53 °F  
Max Temperature 84 °F 70 °F 88 °F (2013)
Min Temperature 41 °F 36 °F 24 °F (1999)
Degree Days  
Heating Degree Days 2 12  
Month to date heating degree days 55 91  
Since 1 June heating degree days 55 91  
Since 1 July heating degree days 6550 7513  
Cooling Degree Days 0 0  
Month to date cooling degree days 0 0  
Year to date cooling degree days 0 0  
Since 1 June cooling degree days 0 0  
Growing Degree Days 12 (Base 50)    
Moisture  
Dew Point 33 °F    
Average Humidity 45    
Maximum Humidity 76    
Minimum Humidity 13    
Precipitation  
Precipitation 0.00 in - 0.45 in (1972)
Month to date precipitation 0.00  
Year to date precipitation 12.40  
Sea Level Pressure  
Sea Level Pressure 29.93 in    
Wind  
Wind Speed 4 mph (South)    
Max Wind Speed 18 mph    
Max Gust Speed 25 mph    
Visibility 10 miles    
Events      
T = Trace of Precipitation, MM = Missing Value Source: NWS Daily Summary

Daily Weather History Graph

Daily Weather History Graph

Search for Another Location

Airport:

Trip Planner

Search our weather history database for the weather conditions in past years. The results will help you decide how hot, cold, wet, or windy it might be!

Date:

Astronomy

Jun. 07, 2014 Rise Set
Actual Time 5:34 AM PDT 8:23 PM PDT
Civil Twilight 5:02 AM PDT 8:55 PM PDT
Nautical Twilight 4:23 AM PDT 9:35 PM PDT
Astronomical Twilight 3:37 AM PDT 10:20 PM PDT
Moon 2:48 PM PDT (6/7) 1:55 AM PDT (6/7)
Length of Visible Light 15h 52m
Length of Day
14h 48m
Waxing Gibbous, 69% of the Moon is Illuminated
Jun 7
Waxing Gibbous
Jun 12
Full
Jun 19
Last Quarter
Jun 27
New
Jul 5
First Quarter

Hourly Weather History & Observations

Time (PDT) Temp. Windchill Dew Point Humidity Pressure Visibility Wind Dir Wind Speed Gust Speed Precip Events Conditions
12:53 AM 50.0 °F - 35.1 °F 57% 29.93 in 10.0 mi SW 3.5 mph - N/A   Clear
1:53 AM 48.0 °F - 35.1 °F 61% 29.92 in 10.0 mi SSW 3.5 mph - N/A   Clear
2:53 AM 45.0 °F - 35.1 °F 68% 29.94 in 10.0 mi Calm Calm - N/A   Clear
3:53 AM 43.0 °F - 35.1 °F 74% 29.95 in 10.0 mi Calm Calm - N/A   Clear
6:53 AM 45.0 °F 43.5 °F 36.0 °F 71% 29.98 in 10.0 mi South 3.5 mph - N/A   Clear
7:53 AM 55.0 °F - 37.9 °F 53% 29.96 in 10.0 mi Calm Calm - N/A   Clear
8:53 AM 66.0 °F - 36.0 °F 33% 29.95 in 10.0 mi Calm Calm - N/A   Clear
9:53 AM 72.0 °F - 30.9 °F 22% 29.93 in 10.0 mi Variable 4.6 mph - N/A   Clear
10:53 AM 73.0 °F - 30.0 °F 20% 29.94 in 10.0 mi NNE 9.2 mph - N/A   Clear
11:53 AM 75.0 °F - 33.1 °F 22% 29.93 in 10.0 mi NNE 9.2 mph - N/A   Clear
12:53 PM 75.0 °F - 28.9 °F 18% 29.92 in 10.0 mi NNE 9.2 mph - N/A   Clear
1:53 PM 79.0 °F - 28.0 °F 15% 29.90 in 10.0 mi Variable 5.8 mph - N/A   Clear
2:53 PM 82.0 °F - 28.9 °F 14% 29.88 in 10.0 mi NNE 10.4 mph - N/A   Clear
3:53 PM 81.0 °F - 25.0 °F 13% 29.89 in 10.0 mi SW 10.4 mph 17.3 mph N/A   Clear
4:53 PM 79.0 °F - 24.1 °F 13% 29.90 in 10.0 mi Calm Calm - N/A   Clear
5:53 PM 77.0 °F - 28.0 °F 17% 29.92 in 10.0 mi Calm Calm - N/A   Clear
6:53 PM 73.9 °F - 32.0 °F 21% 29.93 in 10.0 mi North - - N/A   Clear
7:53 PM 66.9 °F - 34.0 °F 30% 29.94 in 10.0 mi Calm Calm - N/A   Clear
8:53 PM 61.0 °F - 37.0 °F 41% 29.94 in 10.0 mi SSE 4.6 mph - N/A   Clear
9:53 PM 57.9 °F - 39.0 °F 49% 29.96 in 10.0 mi South 3.5 mph - N/A   Clear
10:53 PM 55.0 °F - 39.0 °F 55% 29.97 in 10.0 mi SSW 5.8 mph - N/A   Clear
11:53 PM 53.1 °F - 37.9 °F 57% 29.97 in 10.0 mi SSW 4.6 mph - N/A   Clear